This is the latest recevied weather packets stored in our database for station/object N4RCT. If no packets are shown the sender has not sent any weather packets the latest 10 day(s).
| Time | Temp. | Humidity | Pressure | Rain* | Wind** | Luminosity | Snow |
|---|---|---|---|---|---|---|---|
| 1777658008 | 18.33° C | 67% | 1013.8 hPa | 0 mm | - | 253 W/m² | - |
| 1777657705 | 17.78° C | 67% | 1013.9 hPa | 0 mm | - | 233 W/m² | - |
| 1777657402 | 17.78° C | 71% | 1013.9 hPa | 0 mm | - | 204 W/m² | - |
| 1777657100 | 17.78° C | 68% | 1013.9 hPa | 0 mm | - | 192 W/m² | - |
| 1777656797 | 17.78° C | 68% | 1013.5 hPa | 0 mm | - | 203 W/m² | - |
| 1777656492 | 17.78° C | 67% | 1013.8 hPa | 0 mm | - | 207 W/m² | - |
| 1777656188 | 17.78° C | 67% | 1013.8 hPa | 0 mm | - | 226 W/m² | - |
| 1777655884 | 17.78° C | 67% | 1013.8 hPa | 0 mm | - | 202 W/m² | - |
| 1777655581 | 17.78° C | 68% | 1013.7 hPa | 0 mm | - | 186 W/m² | - |
| 1777655277 | 17.78° C | 67% | 1013.8 hPa | 0 mm | - | 182 W/m² | - |
| 1777654975 | 17.78° C | 66% | 1013.8 hPa | 0 mm | - | 186 W/m² | - |
| 1777654672 | 18.33° C | 66% | 1013.9 hPa | 0 mm | - | 220 W/m² | - |
| 1777654369 | 18.33° C | 64% | 1013.8 hPa | 0 mm | - | 303 W/m² | - |
| 1777654067 | 17.78° C | 66% | 1014.1 hPa | 0 mm | - | 348 W/m² | - |
| 1777653764 | 17.78° C | 70% | 1014 hPa | 0 mm | - | 411 W/m² | - |
| 1777653460 | 16.67° C | 67% | 1013.9 hPa | 0 mm | - | 328 W/m² | - |
| 1777653158 | 17.22° C | 72% | 1014.3 hPa | 0 mm | - | 270 W/m² | - |
| 1777652853 | 17.22° C | 69% | 1014.3 hPa | 0 mm | - | 271 W/m² | - |
| 1777652550 | 17.22° C | 71% | 1014.5 hPa | 0 mm | - | 247 W/m² | - |
| 1777652247 | 17.22° C | 71% | 1014.4 hPa | 0 mm | - | 238 W/m² | - |
| 1777651944 | 17.22° C | 73% | 1014.2 hPa | 0 mm | - | 238 W/m² | - |
| 1777651641 | 16.67° C | 73% | 1014.4 hPa | 0 mm | - | 216 W/m² | - |
| 1777651338 | 16.67° C | 73% | 1014.3 hPa | 0 mm | - | 189 W/m² | - |
| 1777651035 | 16.67° C | 72% | 1014.3 hPa | 0 mm | - | 197 W/m² | - |
| 1777650732 | 16.67° C | 71% | 1014.2 hPa | 0 mm | - | 220 W/m² | - |
* Rain latest hour (hover to see other rain measurements)
** Current wind speed in m/s (hover to see current wind gust speed)